Location: ???????
(55.4362°N, 38.1183°E)
Time: 05:38:10
(UTC+00:00)

Cosmos 1354 Rocket - Visible Passes

Search period start: 18 October 2021 00:00
Search period end: 28 October 2021 00:00
Orbit: 765 x 782 km, 74.0° (Epoch: 17 October)

Date Brightness Start Highest point End Pass type
(mag) Time Alt. Az. Time Alt. Az. Time Alt. Az.
18 Oct 6.4 15:13:16 10° WNW 15:16:10 15° NNW 15:19:04 10° N visible
18 Oct 6.4 18:42:09 10° N 18:44:02 15° N 18:44:02 15° N visible
18 Oct 6.9 20:23:52 10° NNW 20:24:24 13° NNW 20:24:24 13° NNW visible
19 Oct 6.6 16:24:27 10° N 16:24:51 10° N 16:25:14 10° N visible
19 Oct 6.4 18:06:54 10° N 18:09:07 14° NNE 18:09:07 14° NNE visible
19 Oct 6.7 19:48:33 10° NNW 19:49:29 15° NNW 19:49:29 15° NNW visible
20 Oct 6.5 15:47:33 10° NNW 15:48:49 11° N 15:50:06 10° N visible
20 Oct 6.4 17:31:40 10° N 17:33:38 12° NNE 17:34:13 12° NNE visible
20 Oct 6.5 19:13:15 10° NNW 19:14:35 16° N 19:14:35 16° N visible
21 Oct 6.4 15:10:47 10° NW 15:12:49 12° NNW 15:14:53 10° N visible
21 Oct 6.4 16:56:26 10° N 16:57:38 11° N 16:58:50 10° NNE visible
21 Oct 6.3 18:37:58 10° NNW 18:39:41 16° N 18:39:41 16° N visible
21 Oct 7.0 20:19:49 10° NNW 20:20:03 11° NNW 20:20:03 11° NNW visible
22 Oct 6.5 16:21:16 10° N 16:21:37 10° N 16:21:57 10° N visible
22 Oct 6.2 18:02:42 10° N 18:04:48 16° NNE 18:04:48 16° NNE visible
22 Oct 6.8 19:44:27 10° NNW 19:45:10 14° NNW 19:45:10 14° NNW visible
23 Oct 6.5 15:45:21 10° N 15:45:35 10° N 15:45:48 10° N visible
23 Oct 6.2 17:27:27 10° N 17:29:55 14° NNE 17:29:55 14° NNE visible
23 Oct 6.5 19:09:07 10° NNW 19:10:17 16° NNW 19:10:17 16° NNW visible
24 Oct 6.4 15:08:26 10° NNW 15:09:33 11° N 15:10:40 10° N visible
24 Oct 6.2 16:52:13 10° N 16:54:21 12° NNE 16:55:03 12° NNE visible
24 Oct 6.3 18:33:49 10° NNW 18:35:25 18° N 18:35:25 18° N visible
25 Oct 6.3 16:16:59 10° N 16:18:22 11° NNE 16:19:45 10° NNE visible
25 Oct 6.1 17:58:31 10° NNW 18:00:34 18° N 18:00:34 18° N visible
25 Oct 6.8 19:40:24 10° NNW 19:40:56 13° NNW 19:40:56 13° NNW visible
26 Oct 6.4 15:41:45 10° N 15:42:21 10° N 15:42:56 10° NNE visible
26 Oct 6.0 17:23:15 10° NNW 17:25:43 17° NNE 17:25:43 17° NNE visible
26 Oct 6.6 19:05:01 10° NNW 19:06:05 16° NNW 19:06:05 16° NNW visible
27 Oct 6.4 15:06:12 10° N 15:06:18 10° N 15:06:24 10° N visible
27 Oct 6.0 16:48:00 10° N 16:50:53 15° NNE 16:50:53 15° NNE visible
27 Oct 6.3 18:29:41 10° NNW 18:31:15 19° N 18:31:15 19° N visible
